国际通讯卫星 22 星 (INTELSAT 22 (IS-22))

导读

INTELSAT 22又名国际通讯卫星22星,由国际通信卫星组织(ITSO)拥有,于2012年3月25日通过质子M/Briz M火箭在拜科努尔航天中心发射升空,是一颗地球静止轨道通信卫星,采用BSS-702MP平台、三轴稳定设计。本次发射是质子火箭首次执行超同步转移轨道发射任务,目前该卫星仍在轨运行,为全球提供通信服务。

Basic Information
目录编号:
38098
目录名称:
INTELSAT 22
国际标识:
2012-011A
轨道中心:
EARTH
卫星名称:
国际通讯卫星 22 星
卫星全名:
国际通讯卫星 22 星 (INTELSAT 22 (IS-22))
卫星状态:
在轨 (已飞行5196 天)
发射日期:
2012-03-25 UTC
国别 :
(ITSO)
星等 :
--
Orbit Information
数据来源 国际轨道数据 AOE轨道数据
星历时间 2026-06-16T12:07:22+0800
8小时前
查看轨道信息
2026-06-16T08:00:00+0800
12小时前
查看轨道信息
半长轴 42164.588km 42164.588km
偏心率 0.0001574 0.0001524
轨道倾角 0.015° 0.041°
近地点辐角 359.603° 39.124°
升交点赤经 101.284° 58.286°
平近点角 297.486° 238.952°
近地点 35779.814km 35780.025km
远地点 35793.088km 35792.877km
周期 1436.090分钟 1436.090分钟
每日圈数 1.002723 1.002723
Detailed Information
卫星平台:
BSS-702MP
平衡模式:
三轴稳定
覆盖范围:
全球
运营商:
国际卫星通信公司
运营商所在国:
美国
制造商(研发单位):
波音公司
制造商所在国:
美国
使用方式:
暂无
Satellite Introduction
从1965年4月至1984年3月,国际通信卫星组织发射了5代、6种不同性能的卫星共计35颗,除6颗卫星因运载火箭和远地点发动机故障而发射失败外,其余29颗卫星均被送到了预定的静止轨道位置。1984年8月前后,国际通信卫星组织利用部署在大西洋、太平洋、印度洋上空的15颗国际通信卫星,为遍布世界各地170多个国家或地区提供电话、电传、电报、电视和数据传输等电信业务;该卫星仍在工作。
2D Orbit Map
3D Orbit Map
Orbit Altitude Analysis Chart
Orbit Inclination Analysis Chart
Orbit Comprehensive Analysis Chart
View Comprehensive Chart